SCP
2 2 2 1 1 0 0 0 0 0 0 0 0 0 0 0 0 0 0 0 0 0
2 2 2 1 0 0 0 0 0 0 0 0 0 0 0 0 0 0 0 0 0 0
3 2 1 1 0 0 0 0 0 0 0 0 0 0 0 0 0 0 0 0 0 0
3 2 1 0 0 0 0 0 0 0 0 0 0 0 0 0 0 0 0 0 0 0
3 2 1 0 0 0 0 0 0 0 0 0 0 0 0 0 0 0 0 0 0 0
2 1 0 0 0 0 0 0 0 0 0 0 0 0 0 0 0 0 0 0 0 0
3 1 0 0 0 0 0 0 0 0 0 0 0 0 0 0 0 0 0 0 0 0
2 0 0 0 0 0 0 0 0 0 0 0 0 0 0 0 0 0 0 0 0 0
1 0 0 0 0 0 0 0 0 0 0 0 0 0 -0 0 0 0 0 0 0 0
0 0 0 0 0 0 0 0 0 0 0 0 0 -0 -0 -0 0 0 0 0 0 0
0 0 0 0 0 0 0 0 0 0 0 0 0 -0 -0 -0 0 0 0 0 0 0
0 0 0 0 0 0 0 0 0 0 0 0 0 -0 -0 0 0 0 0 0 0 0
0 0 0 0 0 0 0 0 0 0 0 0 0 -0 0 0 0 0 0 0 0 0
0 0 0 0 0 0 0 0 0 0 0 0 0 0 -0 0 0 0 0 0 0 0
Wind_Speed_500mb
91 90 79 72 78 79 67 65 61 51 36 34 32 25 25 27 22 17 14 8 3 2
93 90 83 76 76 67 65 63 56 45 43 35 32 31 34 26 22 16 10 5 4 2
98 90 86 72 71 64 64 66 71 56 43 42 41 41 32 29 21 13 9 7 4 4
87 92 83 77 72 73 72 77 67 55 50 52 45 38 33 27 21 14 14 11 7 4
84 98 82 78 76 70 82 79 63 50 59 50 46 39 33 30 26 19 15 13 6 5
76 83 82 78 73 76 75 86 56 57 62 57 50 43 37 29 25 20 17 10 4 4
81 80 77 74 65 78 69 69 59 70 62 58 52 42 37 28 23 20 14 5 5 6
92 79 84 82 93 81 67 62 60 62 57 56 49 42 36 29 23 17 10 9 8 12
97 94 88 87 95 79 76 66 60 61 57 56 47 41 33 24 19 17 14 14 15 20
105 99 98 104 93 80 76 64 59 64 58 52 48 39 31 23 21 19 20 22 23 24
108 106 109 102 94 93 90 88 79 65 61 55 49 37 28 24 23 25 29 30 28 26
106 117 107 102 94 88 83 86 78 75 67 59 51 31 29 24 25 29 33 33 28 29
107 117 112 108 95 95 93 89 86 74 59 51 54 38 29 22 26 33 37 32 30 30
107 120 123 111 101 101 92 91 83 76 66 58 51 42 31 27 29 33 35 31 30 31
Wind_Direction_500mb
212 208 214 219 210 198 193 184 185 185 192 200 202 196 186 175 176 178 196 198 226 238
216 218 221 217 215 208 198 192 186 186 195 188 185 180 173 175 178 178 175 155 98 17
222 216 216 215 214 215 208 204 186 184 184 179 173 169 173 169 160 166 160 119 81 130
217 211 211 216 221 220 209 197 179 174 176 169 166 165 166 160 151 159 135 119 142 67
210 212 214 218 218 216 193 178 176 173 166 165 169 165 163 156 145 143 132 142 100 28
204 207 205 208 208 188 192 186 172 161 167 165 166 159 154 151 145 140 137 112 72 24
191 195 200 199 199 185 178 162 159 169 163 166 162 157 153 149 142 139 123 125 63 68
191 200 198 184 176 168 161 156 157 168 161 162 158 154 151 143 141 125 118 105 100 84
182 185 187 181 170 164 158 156 160 167 166 161 151 145 142 142 131 123 122 109 97 79
181 178 179 173 162 162 162 159 177 169 166 156 145 146 143 134 128 131 117 107 91 83
175 170 170 165 166 167 168 167 174 165 162 156 144 150 138 135 133 124 114 101 94 86
175 168 172 168 166 167 167 162 163 163 160 155 140 144 141 138 132 124 112 103 98 77
177 173 170 172 171 165 166 160 159 154 154 150 140 142 134 135 132 125 115 108 91 75
178 173 172 166 160 158 160 156 153 150 149 146 140 134 131 132 130 125 119 102 86 71
Wind_Speed_850mb
91 90 79 72 78 79 67 65 61 51 36 34 32 25 25 27 22 17 14 8 3 2
93 90 83 76 76 67 65 63 56 45 43 35 32 31 34 26 22 16 10 5 4 2
98 90 86 72 71 64 64 66 71 56 43 42 41 41 32 29 21 13 9 7 4 4
87 92 83 77 72 73 72 77 67 55 50 52 45 38 33 27 21 14 14 11 7 4
84 98 82 78 76 70 82 79 63 50 59 50 46 39 33 30 26 19 15 13 6 5
76 83 82 78 73 76 75 86 56 57 62 57 50 43 37 29 25 20 17 10 4 4
81 80 77 74 65 78 69 69 59 70 62 58 52 42 37 28 23 20 14 5 5 6
92 79 84 82 93 81 67 62 60 62 57 56 49 42 36 29 23 17 10 9 8 12
97 94 88 87 95 79 76 66 60 61 57 56 47 41 33 24 19 17 14 14 15 20
105 99 98 104 93 80 76 64 59 64 58 52 48 39 31 23 21 19 20 22 23 24
108 106 109 102 94 93 90 88 79 65 61 55 49 37 28 24 23 25 29 30 28 26
106 117 107 102 94 88 83 86 78 75 67 59 51 31 29 24 25 29 33 33 28 29
107 117 112 108 95 95 93 89 86 74 59 51 54 38 29 22 26 33 37 32 30 30
107 120 123 111 101 101 92 91 83 76 66 58 51 42 31 27 29 33 35 31 30 31
Wind_Direction_850mb
212 208 214 219 210 198 193 184 185 185 192 200 202 196 186 175 176 178 196 198 226 238
216 218 221 217 215 208 198 192 186 186 195 188 185 180 173 175 178 178 175 155 98 17
222 216 216 215 214 215 208 204 186 184 184 179 173 169 173 169 160 166 160 119 81 130
217 211 211 216 221 220 209 197 179 174 176 169 166 165 166 160 151 159 135 119 142 67
210 212 214 218 218 216 193 178 176 173 166 165 169 165 163 156 145 143 132 142 100 28
204 207 205 208 208 188 192 186 172 161 167 165 166 159 154 151 145 140 137 112 72 24
191 195 200 199 199 185 178 162 159 169 163 166 162 157 153 149 142 139 123 125 63 68
191 200 198 184 176 168 161 156 157 168 161 162 158 154 151 143 141 125 118 105 100 84
182 185 187 181 170 164 158 156 160 167 166 161 151 145 142 142 131 123 122 109 97 79
181 178 179 173 162 162 162 159 177 169 166 156 145 146 143 134 128 131 117 107 91 83
175 170 170 165 166 167 168 167 174 165 162 156 144 150 138 135 133 124 114 101 94 86
175 168 172 168 166 167 167 162 163 163 160 155 140 144 141 138 132 124 112 103 98 77
177 173 170 172 171 165 166 160 159 154 154 150 140 142 134 135 132 125 115 108 91 75
178 173 172 166 160 158 160 156 153 150 149 146 140 134 131 132 130 125 119 102 86 71